User: anonymous   Login
Location: Unspecified
(0.0000°N, 0.0000°E)
Time: 07:01:02
(UTC+02:00)
Language:

Ariane H10 - Orbit

View from above orbital plane
View from above orbital plane
View from above satellite
View from above satellite

Ground track
Ground track

The orbit data is extracted from the following two-line orbital elements,

1 19622U 88098B   18114.50667663 +.00000986 +00000-0 +25888-3 0  9994
2 19622 003.7522 292.4920 6350377 351.9114 001.3446 03.51537283315323
Epoch (UTC): 24 April 2018 12:09:36
Eccentricity: 0.6350377
inclination: 3.7522°
perigee height: 290 km
apogee height: 23495 km
right ascension of ascending node: 292.4920°
argument of perigee: 351.9114°
revolutions per day: 3.51537283
mean anomaly at epoch: 1.3446°
orbit number at epoch: 31532

The dashed part of the orbit path shows where the satellite is in the earth's shadow,  

DLR